Weather History for Benton Harbor, MI

Change the Weather History Date:

Friday, July 26, 2013

  Actual Average Record
Temperature  
Mean Temperature 66 °F -  
Max Temperature 77 °F 82 °F 92 °F (1966)
Min Temperature 57 °F 61 °F 49 °F (1961)
Cooling Degree Days 1    
Growing Degree Days 16 (Base 50)    
Moisture  
Dew Point 57 °F    
Average Humidity 70    
Maximum Humidity 87    
Minimum Humidity 54    
Precipitation  
Precipitation 0.00 in - - ()
Sea Level Pressure  
Sea Level Pressure 29.98 in    
Wind  
Wind Speed 6 mph (South)    
Max Wind Speed 15 mph    
Max Gust Speed 21 mph    
Visibility 10 miles    
Events      
Averages and records for this station are not official NWS values.
T = Trace of Precipitation, MM = Missing Value Source: NWS Daily Summary

Daily Weather History Graph

Daily Weather History Graph

Search for Another Location

Airport:

Trip Planner

Search our weather history database for the weather conditions in past years. The results will help you decide how hot, cold, wet, or windy it might be!

Date:

Astronomy

Jul. 26, 2013 Rise Set
Actual Time 6:33 AM EDT 9:10 PM EDT
Civil Twilight 6:00 AM EDT 9:42 PM EDT
Nautical Twilight 5:20 AM EDT 10:23 PM EDT
Astronomical Twilight 4:34 AM EDT 11:08 PM EDT
Moon 11:17 PM EDT (7/26) 11:14 AM EDT (7/26)
Length of Visible Light 15h 42m
Length of Day
14h 37m
Waning Gibbous, 80% of the Moon is Illuminated
Jul 26
Waning Gibbous
Jul 29
Last Quarter
Aug 6
New
Aug 14
First Quarter
Aug 20
Full

Hourly Weather History & Observations

Time (EDT) Temp. Dew Point Humidity Pressure Visibility Wind Dir Wind Speed Gust Speed Precip Events Conditions
12:53 AM 57.9 °F 48.9 °F 72% 30.05 in 10.0 mi SE 4.6 mph - N/A   Clear
1:53 AM 62.1 °F 48.9 °F 62% 30.05 in 10.0 mi SSE 5.8 mph - N/A   Clear
2:53 AM 62.1 °F 52.0 °F 70% 30.03 in 10.0 mi SSE 5.8 mph - N/A   Clear
3:53 AM 61.0 °F 54.0 °F 78% 30.04 in 10.0 mi Calm Calm - N/A   Clear
4:53 AM 61.0 °F 55.0 °F 81% 30.04 in 10.0 mi SSE 3.5 mph - N/A   Clear
5:53 AM 61.0 °F 55.9 °F 83% 30.03 in 10.0 mi SSE 4.6 mph - N/A   Mostly Cloudy
6:53 AM 62.1 °F 55.9 °F 80% 30.04 in 10.0 mi Variable 3.5 mph - N/A   Clear
7:53 AM 64.9 °F 55.9 °F 73% 30.04 in 10.0 mi South 5.8 mph - N/A   Partly Cloudy
8:53 AM 66.0 °F 57.0 °F 73% 30.03 in 10.0 mi South 8.1 mph - N/A   Clear
9:53 AM 68.0 °F 57.9 °F 70% 30.04 in 10.0 mi South 6.9 mph - N/A   Mostly Cloudy
10:53 AM 69.1 °F 57.9 °F 68% 30.04 in 10.0 mi South 5.8 mph - N/A   Overcast
11:53 AM 71.1 °F 57.0 °F 61% 30.03 in 10.0 mi South 8.1 mph - N/A   Overcast
12:53 PM 73.0 °F 57.9 °F 59% 30.02 in 10.0 mi SSW 8.1 mph - N/A   Overcast
1:53 PM 75.9 °F 57.9 °F 54% 29.99 in 10.0 mi SW 15.0 mph 18.4 mph N/A   Mostly Cloudy
2:53 PM 73.9 °F 57.9 °F 57% 29.99 in 10.0 mi WSW 10.4 mph - N/A   Overcast
3:53 PM 73.0 °F 59.0 °F 61% 29.97 in 10.0 mi SW 8.1 mph - N/A   Overcast
4:53 PM 72.0 °F 57.0 °F 59% 29.95 in 10.0 mi SSW 11.5 mph - N/A   Overcast
5:53 PM 73.0 °F 59.0 °F 61% 29.92 in 10.0 mi SSE 9.2 mph - N/A   Overcast
6:53 PM 73.0 °F 57.9 °F 59% 29.92 in 10.0 mi South 11.5 mph 17.3 mph N/A   Overcast
7:53 PM 69.1 °F 59.0 °F 70% 29.92 in 10.0 mi South 9.2 mph 20.7 mph N/A   Overcast
8:43 PM 68.0 °F 57.2 °F 68% 29.93 in 10.0 mi SSW 8.1 mph - N/A   Overcast
8:53 PM 68.0 °F 59.0 °F 73% 29.92 in 10.0 mi SSW 6.9 mph - N/A   Overcast
9:53 PM 66.9 °F 60.1 °F 79% 29.90 in 10.0 mi SSW 8.1 mph 18.4 mph N/A   Mostly Cloudy
10:11 PM 66.2 °F 60.8 °F 83% 29.90 in 10.0 mi South 8.1 mph - N/A   Partly Cloudy
10:53 PM 66.0 °F 61.0 °F 84% 29.89 in 10.0 mi SSW 6.9 mph - N/A   Clear
11:53 PM 64.9 °F 61.0 °F 87% 29.88 in 10.0 mi South 4.6 mph - N/A   Scattered Clouds